FW1207 Weather Reports


Display with metric or nautical units.
time (UTC)temp
F
wind
direction
speed
MPH
gust
MPH
rain 1hr
in
rain 24hr
in
rain mn
in
humidity
%
barometer
mb
20181217050136 40 177 0.0 0.0 0.00 0.00 0.00 96 1015.9
20181217045635 40 177 0.0 0.0 0.00 0.00 0.00 96 1015.6
20181217045148 40 177 0.0 0.0 0.00 0.00 0.00 97 1015.6
20181217044643 40 177 0.0 0.0 0.00 0.00 0.00 97 1015.6
20181217044140 40 177 0.0 0.0 0.00 0.00 0.00 97 1015.6
20181217043646 40 177 0.0 0.0 0.00 0.00 0.00 96 1015.6
20181217043141 40 178 0.0 0.0 0.00 0.00 0.00 96 1015.6
20181217042637 41 180 0.0 0.0 0.00 0.00 0.00 95 1015.6
20181217042150 41 186 0.0 0.0 0.00 0.00 0.00 95 1015.6
20181217041642 41 186 0.0 0.0 0.00 0.00 0.00 94 1015.6
20181217041140 41 186 0.0 0.0 0.00 0.00 0.00 93 1015.6
20181217040659 42 186 0.0 0.0 0.00 0.00 0.00 93 1015.6
20181217040130 42 186 0.0 0.0 0.00 0.00 0.00 92 1015.6
20181217035637 42 187 0.0 0.0 0.00 0.00 0.00 93 1015.2
20181217035144 42 187 0.0 0.0 0.00 0.00 0.00 93 1015.6
20181217034642 42 187 0.0 0.0 0.00 0.00 0.00 92 1015.6
20181217034143 42 187 0.0 0.0 0.00 0.00 0.00 92 1015.9
20181217033648 43 187 0.0 0.0 0.00 0.00 0.00 91 1015.6
20181217033148 43 188 0.0 0.0 0.00 0.00 0.00 91 1015.6
20181217032642 43 188 0.0 0.0 0.00 0.00 0.00 90 1015.6
20181217032151 43 188 0.0 0.0 0.00 0.00 0.00 90 1015.6
20181217031644 43 188 0.0 0.0 0.00 0.00 0.00 90 1015.6
20181217031141 43 188 0.0 0.0 0.00 0.00 0.00 90 1015.6
20181217030650 43 189 0.0 0.0 0.00 0.00 0.00 89 1015.6
20181217030144 44 189 0.0 0.0 0.00 0.00 0.00 88 1015.6
20181217025645 44 191 0.0 0.0 0.00 0.00 0.00 88 1015.9
20181217025152 44 191 0.0 0.0 0.00 0.00 0.00 87 1015.9
20181217024643 44 191 0.0 0.0 0.00 0.00 0.00 87 1015.9
20181217024141 45 192 0.0 0.0 0.00 0.00 0.00 86 1015.6
20181217023650 45 193 0.0 0.0 0.00 0.00 0.00 86 1015.6
20181217023144 45 193 0.0 0.0 0.00 0.00 0.00 85 1015.9
20181217022637 45 193 0.0 0.0 0.00 0.00 0.00 87 1015.6
20181217022151 45 193 0.0 0.0 0.00 0.00 0.00 86 1015.9
20181217021643 46 193 0.0 0.0 0.00 0.00 0.00 85 1015.9
20181217021142 46 193 0.0 0.0 0.00 0.00 0.00 84 1016.3
20181217020650 46 193 0.0 0.0 0.00 0.00 0.00 84 1016.3
20181217020146 47 193 0.0 0.0 0.00 0.00 0.00 83 1015.9
20181217015642 48 193 0.0 0.0 0.00 0.00 0.00 81 1015.6
20181217015156 47 193 1.0 1.0 0.00 0.00 0.00 80 1015.6
20181217014646 47 193 0.0 0.0 0.00 0.00 0.00 81 1015.9
20181217014144 47 193 0.0 0.0 0.00 0.00 0.00 81 1015.9
20181217013718 48 193 0.0 0.0 0.00 0.00 0.00 79 1015.6
20181217013144 48 193 0.0 0.0 0.00 0.00 0.00 79 1015.9
20181217012638 48 193 0.0 0.0 0.00 0.00 0.00 78 1015.6
20181217012149 48 193 0.0 0.0 0.00 0.00 0.00 77 1015.6
20181217011644 49 193 0.0 0.0 0.00 0.00 0.00 76 1015.6
20181217011145 49 168 0.0 0.0 0.00 0.00 0.00 76 1015.6
20181217010653 49 167 0.0 0.0 0.00 0.00 0.00 75 1015.2
20181217010125 48 168 0.0 0.0 0.00 0.00 0.00 75 1014.9
20181217005640 48 170 0.0 0.0 0.00 0.00 0.00 75 1014.9
20181217005151 49 171 0.0 0.0 0.00 0.00 0.00 74 1015.2
20181217004641 49 170 0.0 0.0 0.00 0.00 0.00 74 1014.9
20181217004139 49 170 0.0 0.0 0.00 0.00 0.00 73 1014.9
20181217003648 49 170 0.0 0.0 0.00 0.00 0.00 73 1014.9
20181217003141 49 170 0.0 0.0 0.00 0.00 0.00 72 1014.9
20181217002642 49 170 0.0 0.0 0.00 0.00 0.00 71 1014.6
20181217002153 50 170 0.0 0.0 0.00 0.00 0.00 69 1014.6
20181217001648 50 170 0.0 0.0 0.00 0.00 0.00 68 1014.6
20181217001143 50 170 0.0 0.0 0.00 0.00 0.00 68 1014.9
20181217000655 51 170 0.0 0.0 0.00 0.00 0.00 67 1014.6
20181217000147 51 170 0.0 0.0 0.00 0.00 0.00 66 1014.6
20181216235641 50 170 1.0 1.0 0.00 0.00 0.00 67 1014.9
20181216235150 51 171 0.0 0.0 0.00 0.00 0.00 68 1014.6
20181216234643 51 171 0.0 0.0 0.00 0.00 0.00 67 1014.6
20181216234142 51 171 0.0 0.0 0.00 0.00 0.00 66 1014.6
20181216233652 52 171 0.0 0.0 0.00 0.00 0.00 65 1014.6
20181216233143 52 171 0.0 0.0 0.00 0.00 0.00 64 1014.6
20181216232641 51 189 0.0 0.0 0.00 0.00 0.00 64 1014.6
20181216232150 52 191 0.0 0.0 0.00 0.00 0.00 66 1015.2
20181216231647 52 191 0.0 0.0 0.00 0.00 0.00 64 1014.9
20181216231149 53 191 0.0 0.0 0.00 0.00 0.00 64 1014.6
20181216230701 53 191 0.0 0.0 0.00 0.00 0.00 64 1014.6
20181216230143 54 191 0.0 0.0 0.00 0.00 0.00 62 1014.9
20181216225644 55 192 0.0 0.0 0.00 0.00 0.00 62 1014.6
20181216225154 55 192 0.0 0.0 0.00 0.00 0.00 59 1014.9
20181216224646 56 179 0.0 0.0 0.00 0.00 0.00 58 1014.9
20181216224146 57 206 0.0 0.0 0.00 0.00 0.00 56 1014.9
20181216223659 57 218 1.0 1.0 0.00 0.00 0.00 56 1015.2
20181216223152 58 189 0.0 0.0 0.00 0.00 0.00 55 1014.9
20181216222632 58 214 1.0 1.0 0.00 0.00 0.00 55 1014.9
20181216222155 58 226 2.0 2.0 0.00 0.00 0.00 54 1014.9
20181216221647 59 233 1.0 1.0 0.00 0.00 0.00 53 1014.9
20181216221145 60 229 1.0 1.0 0.00 0.00 0.00 51 1014.6
20181216220657 61 241 1.0 1.0 0.00 0.00 0.00 52 1014.6
20181216220144 61 199 1.0 2.0 0.00 0.00 0.00 51 1014.6
20181216215651 61 198 0.0 0.0 0.00 0.00 0.00 50 1014.6
20181216215153 61 244 1.0 2.0 0.00 0.00 0.00 49 1014.6
20181216214648 61 270 1.0 1.0 0.00 0.00 0.00 48 1014.6
20181216214143 61 219 2.0 2.0 0.00 0.00 0.00 46 1014.6
20181216213653 62 235 1.0 2.0 0.00 0.00 0.00 46 1014.2
20181216213146 62 267 1.0 3.0 0.00 0.00 0.00 48 1014.6
20181216212645 63 218 0.0 0.0 0.00 0.00 0.00 46 1014.2
20181216212153 62 232 2.0 2.0 0.00 0.00 0.00 49 1014.2
20181216211644 63 240 2.0 5.0 0.00 0.00 0.00 47 1013.9
20181216211129 63 209 0.0 1.0 0.00 0.00 0.00 47 1013.9
20181216210708 63 288 1.0 1.0 0.00 0.00 0.00 48 1014.2
20181216210147 62 224 1.0 2.0 0.00 0.00 0.00 45 1014.2
20181216205652 62 277 3.0 3.0 0.00 0.00 0.00 48 1013.9
20181216205158 63 226 1.0 1.0 0.00 0.00 0.00 48 1013.5
20181216204652 63 224 3.0 3.0 0.00 0.00 0.00 46 1013.9
20181216204129 63 258 3.0 3.0 0.00 0.00 0.00 46 1013.9
20181216203652 62 271 1.0 3.0 0.00 0.00 0.00 46 1013.9
20181216203147 62 256 2.0 2.0 0.00 0.00 0.00 45 1013.9
20181216202646 62 309 2.0 2.0 0.00 0.00 0.00 45 1013.9
20181216202152 61 220 2.0 2.0 0.00 0.00 0.00 47 1013.9
20181216201650 61 247 3.0 3.0 0.00 0.00 0.00 48 1013.9
20181216201142 61 242 5.0 6.0 0.00 0.00 0.00 47 1013.9
20181216200652 61 229 3.0 3.0 0.00 0.00 0.00 50 1013.9
20181216200145 61 299 2.0 2.0 0.00 0.00 0.00 49 1013.9
20181216195642 61 232 2.0 2.0 0.00 0.00 0.00 51 1013.9
20181216195149 61 228 1.0 2.0 0.00 0.00 0.00 51 1013.9
20181216194646 60 237 1.0 1.0 0.00 0.00 0.00 54 1013.9
20181216194144 60 227 2.0 3.0 0.00 0.00 0.00 52 1013.9
20181216193650 59 183 1.0 2.0 0.00 0.00 0.00 53 1013.9
20181216193146 59 243 3.0 5.0 0.00 0.00 0.00 53 1013.9
20181216192644 59 195 0.0 1.0 0.00 0.00 0.00 58 1013.9
20181216192152 59 213 2.0 2.0 0.00 0.00 0.00 59 1013.9
20181216191646 59 240 2.0 2.0 0.00 0.00 0.00 60 1013.9
20181216191152 59 300 1.0 2.0 0.00 0.00 0.00 61 1013.9
20181216190637 58 250 1.0 1.0 0.00 0.00 0.00 65 1014.2
20181216190129 57 192 2.0 2.0 0.00 0.00 0.00 67 1014.2
20181216185642 57 193 1.0 1.0 0.00 0.00 0.00 72 1014.2
20181216185154 56 229 0.0 1.0 0.00 0.00 0.00 73 1014.2
20181216184646 56 227 1.0 2.0 0.00 0.00 0.00 72 1014.2
20181216184142 56 191 0.0 1.0 0.00 0.00 0.00 73 1014.6
20181216183649 56 203 1.0 1.0 0.00 0.00 0.00 74 1014.6
20181216183143 55 207 0.0 0.0 0.00 0.00 0.00 75 1014.9
20181216182644 55 205 1.0 1.0 0.00 0.00 0.00 74 1014.9
20181216182152 55 189 1.0 1.0 0.00 0.00 0.00 78 1014.9
20181216181645 54 153 0.0 0.0 0.00 0.00 0.00 78 1014.9
20181216181144 54 219 1.0 1.0 0.00 0.00 0.00 79 1014.9
20181216180651 53 184 0.0 0.0 0.00 0.00 0.00 80 1014.9
20181216180142 53 191 0.0 0.0 0.00 0.00 0.00 80 1015.2
20181216175641 52 175 0.0 0.0 0.00 0.00 0.00 82 1015.2
20181216175153 51 179 0.0 1.0 0.00 0.00 0.00 82 1015.6
20181216174644 50 202 0.0 0.0 0.00 0.00 0.00 83 1015.9
20181216174143 50 191 0.0 0.0 0.00 0.00 0.00 87 1015.9
20181216173714 49 190 0.0 0.0 0.00 0.00 0.00 88 1015.9
20181216173146 48 187 0.0 0.0 0.00 0.00 0.00 88 1015.9
20181216172645 48 186 0.0 0.0 0.00 0.00 0.00 88 1015.9
20181216172130 48 186 0.0 0.0 0.00 0.00 0.00 88 1015.9
20181216171645 48 234 0.0 0.0 0.00 0.00 0.00 88 1015.9
20181216171143 49 186 0.0 0.0 0.00 0.00 0.00 88 1015.9
20181216170729 49 192 0.0 0.0 0.00 0.00 0.00 85 1015.6
20181216170153 49 147 0.0 0.0 0.00 0.00 0.00 83 1015.6
20181216165642 49 147 0.0 0.0 0.00 0.00 0.00 85 1015.9
20181216165149 48 180 0.0 0.0 0.00 0.00 0.00 90 1015.6
20181216164646 47 180 0.0 0.0 0.00 0.00 0.00 89 1015.9
20181216164143 47 151 0.0 0.0 0.00 0.00 0.00 90 1015.9
20181216163650 46 151 0.0 0.0 0.00 0.00 0.00 91 1016.3
20181216163143 46 150 0.0 0.0 0.00 0.00 0.00 90 1015.9
20181216162643 45 150 0.0 0.0 0.00 0.00 0.00 90 1016.3
20181216162152 45 151 0.0 0.0 0.00 0.00 0.00 90 1016.3
20181216161647 45 191 0.0 0.0 0.00 0.00 0.00 92 1016.3
20181216161125 45 191 0.0 0.0 0.00 0.00 0.00 92 1016.6
20181216160635 45 190 0.0 0.0 0.00 0.00 0.00 92 1016.3
20181216160141 45 187 0.0 0.0 0.00 0.00 0.00 92 1016.6
20181216155641 45 187 0.0 0.0 0.00 0.00 0.00 91 1016.3
20181216155153 45 187 0.0 0.0 0.00 0.00 0.00 91 1016.3
20181216154625 45 186 0.0 0.0 0.00 0.00 0.00 91 1016.3
20181216154141 45 187 0.0 0.0 0.00 0.00 0.00 91 1015.9
20181216153710 44 147 0.0 0.0 0.00 0.00 0.00 91 1015.9
20181216153126 44 146 0.0 0.0 0.00 0.00 0.00 93 1015.9
20181216152625 43 174 0.0 0.0 0.00 0.00 0.00 93 1016.3
20181216152148 42 172 0.0 1.0 0.00 0.00 0.00 93 1015.9
20181216151622 42 164 0.0 0.0 0.00 0.00 0.00 94 1015.6
20181216151141 41 166 0.0 0.0 0.00 0.00 0.00 94 1015.9
20181216150647 41 166 0.0 1.0 0.00 0.00 0.00 95 1015.9
20181216150138 41 216 1.0 1.0 0.00 0.00 0.00 95 1015.6
20181216145637 41 179 0.0 0.0 0.00 0.00 0.00 95 1015.6
20181216145127 41 179 0.0 0.0 0.00 0.00 0.00 95 1015.6
20181216144643 40 182 0.0 0.0 0.00 0.00 0.00 96 1015.2
20181216144139 40 160 0.0 0.0 0.00 0.00 0.00 96 1015.2
20181216143628 39 156 0.0 1.0 0.00 0.00 0.00 96 1014.9
20181216143143 39 160 0.0 0.0 0.00 0.00 0.00 96 1015.2
20181216142640 39 184 0.0 0.0 0.00 0.00 0.00 96 1014.9
20181216142148 39 183 0.0 1.0 0.00 0.00 0.00 96 1014.9
20181216141624 39 161 1.0 2.0 0.00 0.00 0.00 97 1014.6
20181216141122 39 187 0.0 0.0 0.00 0.00 0.00 97 1014.9
20181216140730 39 171 0.0 0.0 0.00 0.00 0.00 98 1014.9
20181216140143 39 154 0.0 0.0 0.00 0.00 0.00 97 1014.6
20181216135616 39 154 0.0 0.0 0.00 0.00 0.00 97 1014.6
20181216135145 38 154 0.0 0.0 0.00 0.00 0.00 98 1014.6
20181216134622 38 155 0.0 0.0 0.00 0.00 0.00 98 1014.6
20181216134142 38 155 0.0 0.0 0.00 0.00 0.00 98 1014.6
20181216133642 39 155 0.0 0.0 0.00 0.00 0.00 99 1014.6
20181216133142 39 155 0.0 0.0 0.00 0.00 0.00 99 1014.6
20181216132631 38 154 0.0 0.0 0.00 0.00 0.00 99 1014.6
20181216132122 38 154 0.0 0.0 0.00 0.00 0.00 99 1014.6
20181216131619 38 154 0.0 0.0 0.00 0.00 0.00 99 1014.6
20181216131119 37 154 0.0 0.0 0.00 0.00 0.00 99 1014.6
20181216130638 37 154 0.0 0.0 0.00 0.00 0.00 99 1014.6
20181216130114 37 154 0.0 0.0 0.00 0.00 0.00 99 1014.6
20181216125630 36 156 0.0 0.0 0.00 0.00 0.00 99 1014.6
20181216125122 36 156 0.0 0.0 0.00 0.00 0.00 99 1014.6
20181216124633 36 189 0.0 0.0 0.00 0.00 0.00 99 1014.6
20181216124120 36 188 0.0 0.0 0.00 0.00 0.00 99 1014.6
20181216123708 36 175 0.0 0.0 0.00 0.00 0.00 99 1014.6
20181216123139 36 174 0.0 0.0 0.00 0.00 0.00 99 1014.2
20181216122622 36 174 0.0 0.0 0.00 0.00 0.00 99 1014.2
20181216122132 35 174 0.0 0.0 0.00 0.00 0.00 99 1014.2
20181216121629 35 150 0.0 0.0 0.00 0.00 0.00 99 1014.2
20181216121125 35 149 0.0 0.0 0.00 0.00 0.00 99 1014.6
20181216120617 35 149 0.0 0.0 0.00 0.00 0.00 99 1014.2
20181216120136 35 149 0.0 0.0 0.00 0.00 0.00 99 1014.6
20181216115622 35 132 0.0 0.0 0.00 0.00 0.00 98 1013.9
20181216115111 35 132 0.0 0.0 0.00 0.00 0.00 98 1014.2
20181216114627 36 137 0.0 0.0 0.00 0.00 0.00 99 1014.2
20181216114128 35 157 0.0 0.0 0.00 0.00 0.00 99 1013.9
20181216113601 34 180 0.0 0.0 0.00 0.00 0.00 98 1014.2
20181216113130 34 180 0.0 0.0 0.00 0.00 0.00 98 1014.2
20181216112603 34 181 0.0 0.0 0.00 0.00 0.00 98 1014.2
20181216112103 36 210 0.0 0.0 0.00 0.00 0.00 98 1014.2
20181216111631 35 149 0.0 0.0 0.00 0.00 0.00 99 1014.2
20181216111102 35 159 0.0 0.0 0.00 0.01 0.00 98 1013.9
20181216110613 35 188 0.0 0.0 0.00 0.01 0.00 98 1013.9
20181216110111 35 188 0.0 0.0 0.00 0.01 0.00 97 1014.2
20181216105605 35 188 0.0 0.0 0.00 0.01 0.00 97 1014.2
20181216105103 35 188 0.0 0.0 0.00 0.01 0.00 97 1014.2
20181216104624 36 184 0.0 0.0 0.00 0.02 0.00 97 1013.9
20181216104105 36 135 0.0 0.0 0.00 0.02 0.00 98 1013.9
20181216103600 35 149 0.0 0.0 0.00 0.03 0.00 98 1014.2
20181216103107 35 150 1.0 1.0 0.00 0.03 0.00 96 1013.9
20181216102626 35 175 0.0 0.0 0.00 0.03 0.00 96 1014.6
20181216102120 36 189 0.0 0.0 0.00 0.03 0.00 96 1014.6
20181216101622 37 182 0.0 1.0 0.00 0.04 0.00 96 1014.6
20181216101126 37 153 1.0 1.0 0.00 0.04 0.00 97 1014.6
20181216100627 37 156 0.0 0.0 0.00 0.04 0.00 98 1014.2
20181216100123 36 152 1.0 1.0 0.00 0.04 0.00 99 1014.2
20181216095603 36 151 0.0 0.0 0.00 0.04 0.00 99 1014.2
20181216095108 35 154 0.0 0.0 0.00 0.04 0.00 99 1014.2
20181216094623 35 142 0.0 0.0 0.00 0.04 0.00 99 1014.2
20181216094105 35 121 0.0 0.0 0.00 0.04 0.00 99 1014.6
20181216093625 35 121 0.0 0.0 0.00 0.04 0.00 99 1014.6
20181216093123 35 121 0.0 0.0 0.00 0.04 0.00 99 1014.9
20181216092604 35 121 0.0 0.0 0.00 0.04 0.00 99 1014.6
20181216092109 35 121 0.0 0.0 0.00 0.04 0.00 99 1014.9
20181216091630 35 120 0.0 0.0 0.00 0.04 0.00 99 1014.6
20181216091107 35 120 0.0 0.0 0.00 0.04 0.00 99 1014.6
20181216090631 34 150 0.0 0.0 0.00 0.04 0.00 99 1014.9
20181216090128 34 150 0.0 0.0 0.00 0.04 0.00 99 1014.6
20181216085623 34 151 0.0 0.0 0.00 0.04 0.00 98 1014.9
20181216085112 34 151 0.0 0.0 0.00 0.04 0.00 98 1014.9
20181216084607 34 151 0.0 0.0 0.00 0.04 0.00 98 1014.9
20181216084129 35 151 0.0 0.0 0.00 0.04 0.00 98 1014.9
20181216083616 35 151 0.0 0.0 0.00 0.04 0.00 98 1014.9
20181216083124 35 151 0.0 0.0 0.00 0.04 0.00 98 1014.6
20181216082606 35 151 0.0 0.0 0.00 0.04 0.00 98 1014.6
20181216082126 35 151 0.0 0.0 0.00 0.04 0.00 97 1014.6
20181216081625 36 151 0.0 0.0 0.00 0.04 0.00 97 1014.6
20181216081125 36 151 0.0 0.0 0.00 0.04 0.00 96 1014.6
20181216080626 36 151 0.0 0.0 0.00 0.04 0.00 96 1014.6
20181216080133 36 156 0.0 0.0 0.00 0.04 0.00 97 1014.2
20181216075624 36 156 0.0 0.0 0.00 0.04 0.00 96 1014.6
20181216075116 36 156 0.0 0.0 0.00 0.04 0.00 96 1014.2
20181216074623 36 157 0.0 0.0 0.00 0.04 0.00 96 1014.6
20181216074133 36 157 0.0 0.0 0.00 0.04 0.00 96 1014.2
20181216073617 36 157 0.0 0.0 0.00 0.04 0.00 96 1014.6
20181216073122 36 157 0.0 0.0 0.00 0.04 0.00 96 1014.6
20181216072624 36 158 0.0 0.0 0.00 0.04 0.00 95 1014.6
20181216072113 36 157 0.0 0.0 0.00 0.04 0.00 95 1014.6
20181216071613 36 153 0.0 0.0 0.00 0.04 0.00 95 1014.6
20181216071125 37 153 0.0 0.0 0.00 0.04 0.00 95 1014.6
20181216070627 37 153 0.0 0.0 0.00 0.04 0.00 95 1014.6
20181216070123 37 152 0.0 0.0 0.00 0.04 0.00 95 1014.6
20181216065610 36 152 0.0 0.0 0.00 0.04 0.00 96 1014.2
20181216065130 36 154 0.0 0.0 0.00 0.04 0.00 96 1014.2
20181216064612 36 154 0.0 0.0 0.00 0.04 0.00 95 1014.2
20181216064113 37 188 0.0 0.0 0.00 0.04 0.00 95 1014.6
20181216063624 37 149 0.0 0.0 0.00 0.04 0.00 94 1014.2
20181216063114 37 149 0.0 0.0 0.00 0.04 0.00 94 1013.9
20181216062612 37 149 0.0 0.0 0.00 0.04 0.00 94 1013.9
20181216062135 37 149 0.0 0.0 0.00 0.04 0.00 94 1013.9
20181216061631 37 149 0.0 0.0 0.00 0.04 0.00 93 1013.9
20181216061112 38 149 0.0 0.0 0.00 0.04 0.00 93 1013.9
20181216060628 38 149 0.0 0.0 0.00 0.05 0.00 93 1013.9
20181216055631 37 149 0.0 0.0 0.00 0.05 0.06 93 1013.9
20181216055126 37 149 0.0 0.0 0.00 0.05 0.06 93 1013.9
20181216054626 37 149 0.0 0.0 0.00 0.05 0.06 93 1013.9
20181216054114 38 149 0.0 0.0 0.00 0.05 0.06 92 1013.9
20181216053621 39 149 0.0 0.0 0.00 0.05 0.06 90 1013.9
20181216053132 39 149 0.0 0.0 0.00 0.05 0.06 90 1013.9
20181216052628 39 149 0.0 0.0 0.00 0.05 0.06 89 1013.5
20181216052126 39 149 0.0 0.0 0.00 0.05 0.06 89 1013.9
20181216051623 39 149 0.0 0.0 0.00 0.05 0.06 89 1013.9
20181216051117 39 149 0.0 0.0 0.00 0.05 0.06 88 1013.9
20181216050626 39 149 0.0 0.0 0.00 0.05 0.06 89 1013.9